Location: Gro� Glienicke
(52.4675°N, 13.1079°E)
Time: 19:19:13
(UTC+00:00)

Cosmos 1315 Rocket - Pass Details

Date: 06 July 2020
Orbit: 530 x 568 km, 81.2° (Epoch: 11 August)

Event Time Altitude Azimuth Distance (km) Brightness Sun altitude
Rises 20:39:45 0° 346° (NNW) 2,754 7.9 -7.9°
Reaches altitude 10° 20:41:55 10° 346° (NNW) 1,860 6.8 -8.1°
Maximum altitude 20:46:02 85° 259° (WSW) 573 2.9 -8.5°
Drops below altitude 10° 20:50:09 10° 171° (S) 1,860 4.9 -8.8°
Enters shadow 20:50:15 - 171° (S) 1,900 5.0 -8.8°
